Location: Peterborough
(44.3091°N, 78.3197°W)
Time: 05:26:57
(UTC-04:00)

Vanguard 2 - Pass Details

Date: 27 March 2023
Orbit: 552 x 2926 km, 32.9° (Epoch: 04 June)

Event Time Altitude Azimuth Distance (km) Brightness Sun altitude
Rises 07:10:23 0° 242° (WSW) 6,755 11.8 0.3°
Reaches altitude 10° 07:15:07 10° 238° (WSW) 5,746 11.5 1.2°
Maximum altitude 07:31:28 50° 171° (S) 3,056 10.7 4.1°
Drops below altitude 10° 07:43:29 10° 102° (ESE) 4,332 13.8 6.2°
Sets 07:46:30 0° 96° (E) 5,042 14.4 6.8°
